Date String (YYYY-MM-DD hh:mm:ss) UTC,Instrument flags,absolute air pressure of the measurement (hPa),sample flow rate (lpm),inlet stack bypass flow (lpm),air temperature of the measurement (°C),ambient temperature measured by the external sensor (°C),aerosol sample conditioner tube jacket temperature (°C),OPC LED temperature (°C),internal box temperature (°C),relative humidity of the measurement (%),span deviation,mass concentration of particles derived from Lorenz-Mie calculation of OPC scattering (μg/m³),mass concentration of particles derived from Lorenz-Mie calculation of OPC scattering (μg/m³),mass concentration of particles derived from Lorenz-Mie calculation of OPC scattering (μg/m³)
DateTimeUTC,F1_M11,P_M11,Q1_M11,Q2_M11,T1_M11,T2_M11,T3_M11,T4_M11,T5_M11,U1_M11,ZSPAN_M11,X0_M11,X2_M11,X1_M11
2023-08-16 22:00:00,SystemResetWarning,0831.4,5.00,000.00,028.6,027.2,000.0,036.8,030.4,22.9,0000.0,0011.35,0004.17,0003.57
2023-08-16 22:01:00,SystemResetWarning,0831.4,5.00,000.00,028.6,026.1,000.0,036.7,030.1,22.6,0000.0,0011.04,0004.13,0003.59
2023-08-16 22:02:00,SystemResetWarning,0831.4,5.00,000.00,028.5,024.8,000.0,036.6,029.9,22.7,0000.0,0010.70,0004.12,0003.60
2023-08-16 22:03:00,SystemResetWarning,0831.3,5.02,000.00,028.5,024.9,000.0,036.6,029.8,22.4,0000.0,0010.48,0004.11,0003.62
2023-08-16 22:04:00,SystemResetWarning,0831.4,4.99,000.00,028.5,025.3,000.0,036.6,029.8,22.4,0000.0,0010.55,0004.10,0003.64
2023-08-16 22:05:00,SystemResetWarning,0831.4,5.00,000.00,028.5,025.8,000.0,036.7,030.0,22.8,0000.0,0010.64,0004.12,0003.67
2023-08-16 22:06:00,SystemResetWarning,0831.3,5.00,000.00,028.5,026.3,000.0,036.7,030.2,22.1,0000.0,0009.92,0004.14,0003.70
2023-08-16 22:07:00,SystemResetWarning,0831.3,4.99,000.00,028.6,026.7,000.0,036.8,030.3,21.6,0000.0,0009.53,0004.18,0003.73
2023-08-16 22:08:00,SystemResetWarning,0831.3,4.99,000.00,028.6,027.1,000.0,036.8,030.4,21.8,0000.0,0009.35,0004.20,0003.77
2023-08-16 22:09:00,SystemResetWarning,0831.4,4.99,000.00,028.7,027.4,000.0,036.8,030.5,21.5,0000.0,0008.01,0004.22,0003.79
2023-08-16 22:10:00,SystemResetWarning,0831.4,5.00,000.00,028.7,026.4,000.0,036.8,030.3,21.6,0000.0,0007.87,0004.23,0003.80
2023-08-16 22:11:00,SystemResetWarning,0831.3,5.01,000.00,028.6,025.0,000.0,036.7,030.0,23.6,0000.0,0008.00,0004.25,0003.81
2023-08-16 22:12:00,SystemResetWarning,0831.4,5.01,000.00,028.6,025.1,000.0,036.6,030.0,31.0,0000.0,0008.17,0004.27,0003.82
2023-08-16 22:13:00,SystemResetWarning,0831.4,5.01,000.00,028.5,025.4,000.0,036.7,030.0,32.4,0000.0,0008.68,0004.29,0003.83
2023-08-16 22:19:00,SystemResetWarning,0831.4,5.00,000.00,028.6,024.8,000.0,036.7,029.8,28.9,0000.0,0007.84,0004.16,0003.79
2023-08-16 22:20:00,SystemResetWarning,0831.4,5.01,000.00,028.5,024.9,000.0,036.7,029.8,27.3,0000.0,0007.91,0004.16,0003.78
2023-08-16 22:21:00,SystemResetWarning,0831.4,5.01,000.00,028.5,025.3,000.0,036.7,029.8,26.8,0000.0,0008.19,0004.15,0003.77
2023-08-16 22:22:00,SystemResetWarning,0831.4,5.00,000.00,028.5,025.7,000.0,036.7,030.0,28.5,0000.0,0008.21,0004.15,0003.77
2023-08-16 22:23:00,SystemResetWarning,0831.4,5.00,000.00,028.5,026.1,000.0,036.8,030.1,28.2,0000.0,0008.08,0004.14,0003.77
2023-08-16 22:24:00,SystemResetWarning,0831.4,4.99,000.00,028.5,025.1,000.0,036.7,029.9,26.8,0000.0,0007.44,0004.14,0003.77
2023-08-16 22:25:00,SystemResetWarning,0831.3,5.01,000.00,028.4,023.6,000.0,036.6,029.5,25.9,0000.0,0008.07,0004.14,0003.77
2023-08-16 22:26:00,SystemResetWarning,0831.4,5.01,000.00,028.2,022.7,000.0,036.4,029.2,25.6,0000.0,0008.10,0004.17,0003.77
2023-08-16 22:27:00,SystemResetWarning,0831.4,5.01,000.00,028.1,023.0,000.0,036.4,029.2,25.7,0000.0,0008.38,0004.16,0003.77
2023-08-16 22:28:00,SystemResetWarning,0831.4,5.00,000.00,028.0,023.6,000.0,036.4,029.1,28.8,0000.0,0008.55,0004.18,0003.77
2023-08-16 22:29:00,SystemResetWarning,0831.4,5.00,000.00,028.0,024.2,000.0,036.4,029.3,27.7,0000.0,0008.60,0004.19,0003.77
2023-08-16 22:30:00,SystemResetWarning,0831.5,5.00,000.00,028.0,024.4,000.0,036.4,029.3,27.1,0000.0,0008.59,0004.19,0003.78
2023-08-16 22:31:00,SystemResetWarning,0831.4,4.98,000.00,027.9,023.5,000.0,036.2,029.0,27.6,0000.0,0008.56,0004.18,0003.79
2023-08-16 22:32:00,SystemResetWarning,0831.5,5.01,000.00,027.8,022.8,000.0,036.1,028.8,29.5,0000.0,0008.29,0004.19,0003.80
2023-08-16 22:33:00,SystemResetWarning,0831.4,5.01,000.00,027.7,023.1,000.0,036.0,028.7,34.0,0000.0,0008.28,0004.17,0003.79
2023-08-16 22:34:00,SystemResetWarning,0831.5,5.00,000.00,027.6,023.6,000.0,036.1,028.8,31.5,0000.0,0008.33,0004.18,0003.78
2023-08-16 22:35:00,SystemResetWarning,0831.5,5.00,000.00,027.6,024.2,000.0,036.1,028.9,33.5,0000.0,0008.67,0004.16,0003.77
2023-08-16 22:36:00,SystemResetWarning,0831.5,4.99,000.00,027.6,024.8,000.0,036.1,029.1,35.9,0000.0,0008.15,0004.15,0003.76
2023-08-16 22:37:00,SystemResetWarning,0831.5,5.02,000.00,027.8,024.5,000.0,036.0,029.1,37.1,0000.0,0008.12,0004.12,0003.76
2023-08-16 22:38:00,SystemResetWarning,0831.4,4.99,000.00,028.1,023.5,000.0,035.9,029.0,37.8,0000.0,0007.74,0004.10,0003.75
2023-08-16 22:39:00,SystemResetWarning,0831.5,5.02,000.00,028.4,023.5,000.0,035.8,029.1,33.4,0000.0,0007.60,0004.10,0003.75
2023-08-16 22:40:00,SystemResetWarning,0831.5,4.99,000.00,028.6,023.9,000.0,035.9,029.1,31.6,0000.0,0007.71,0004.17,0003.76
2023-08-16 22:41:00,SystemResetWarning,0831.5,5.00,000.00,028.7,024.4,000.0,036.0,029.2,31.3,0000.0,0007.95,0004.24,0003.78
2023-08-16 22:42:00,SystemResetWarning,0831.5,5.01,000.00,028.8,024.9,000.0,036.1,029.3,30.6,0000.0,0008.09,0004.30,0003.79
2023-08-16 22:43:00,SystemResetWarning,0831.5,5.00,000.00,028.9,025.1,000.0,036.2,029.4,29.1,0000.0,0008.24,0004.34,0003.80
2023-08-16 22:44:00,SystemResetWarning,0831.4,4.98,000.00,029.0,024.0,000.0,036.2,029.1,29.9,0000.0,0008.84,0004.36,0003.81
2023-08-16 22:45:00,SystemResetWarning,0831.4,5.02,000.00,028.9,023.3,000.0,036.2,028.8,30.3,0000.0,0009.56,0004.37,0003.83
2023-08-16 22:46:00,SystemResetWarning,0831.5,5.00,000.00,028.8,023.7,000.0,036.2,028.8,30.6,0000.0,0009.73,0004.40,0003.85
2023-08-16 22:47:00,SystemResetWarning,0831.4,5.00,000.00,028.8,024.1,000.0,036.3,028.9,30.2,0000.0,0009.75,0004.43,0003.86
2023-08-16 22:48:00,SystemResetWarning,0831.4,5.00,000.00,028.7,024.7,000.0,036.4,029.1,29.9,0000.0,0009.86,0004.45,0003.88
2023-08-16 22:49:00,SystemResetWarning,0831.4,5.00,000.00,028.8,025.1,000.0,036.5,029.3,30.2,0000.0,0009.97,0004.47,0003.89
2023-08-16 22:50:00,SystemResetWarning,0831.4,4.98,000.00,028.8,024.5,000.0,036.4,029.1,29.9,0000.0,0010.15,0004.50,0003.90
2023-08-16 22:51:00,SystemResetWarning,0831.4,4.99,000.00,028.7,023.5,000.0,036.4,028.9,30.3,0000.0,0010.26,0004.50,0003.90
2023-08-16 22:52:00,SystemResetWarning,0831.3,5.02,000.00,028.6,023.6,000.0,036.3,028.8,29.3,0000.0,0010.34,0004.51,0003.90
2023-08-16 22:53:00,SystemResetWarning,0831.3,5.00,000.00,028.5,023.9,000.0,036.4,028.9,28.7,0000.0,0010.61,0004.54,0003.92
2023-08-16 22:54:00,SystemResetWarning,0831.3,5.01,000.00,028.5,024.5,000.0,036.4,029.0,28.3,0000.0,0011.15,0004.56,0003.93
2023-08-16 22:55:00,SystemResetWarning,0831.4,5.00,000.00,028.5,025.0,000.0,036.5,029.2,27.7,0000.0,0011.21,0004.57,0003.93
2023-08-16 22:56:00,SystemResetWarning,0831.3,5.00,000.00,028.5,025.5,000.0,036.5,029.4,27.9,0000.0,0010.20,0004.62,0003.93
2023-08-16 22:57:00,SystemResetWarning,0831.3,4.98,000.00,028.6,025.4,000.0,036.5,029.4,27.6,0000.0,0009.81,0004.63,0003.93
2023-08-16 22:58:00,SystemResetWarning,0831.3,5.02,000.00,028.5,024.1,000.0,036.4,029.2,27.2,0000.0,0009.68,0004.66,0003.93
2023-08-16 22:59:00,SystemResetWarning,0831.3,5.01,000.00,028.5,023.6,000.0,036.3,029.0,27.3,0000.0,0009.67,0004.68,0003.93
